User: anonymous   Login
Location: La Trinit�
(48.1620°N, 3.4512°W)
Time: 01:18:11
(UTC+00:00)
Language:

JB-3 - Orbit

View from above orbital plane
View from above orbital plane
View from above satellite
View from above satellite

Ground track
Ground track

The orbit data is extracted from the following two-line orbital elements,

1 28470U 04044A   21216.87331008 -.00000442  00000-0 -27763-4 0  9996
2 28470  97.2789  85.0933 0043892 241.0351 118.6472 15.03162737919648
Epoch (UTC): 04 August 2021 20:57:33
Eccentricity: 0.0043892
inclination: 97.2789°
perigee height: 527 km
apogee height: 587 km
right ascension of ascending node: 85.0933°
argument of perigee: 241.0351°
revolutions per day: 15.03162737
mean anomaly at epoch: 118.6472°
orbit number at epoch: 91964

The dashed part of the orbit path shows where the satellite is in the earth's shadow,  

DLR